Wetbulb
54.82 55.02 55.76 56.32 56.32 57.17 57.58 57.03 57.33 58.05 58.82 58.75 58.68 58.62 58.71 58.97 58.85 58.09 57.30 56.68 56.50 56.36 55.98 55.96 56.79 54.75 50.56 44.62 48.00 49.38 59.72 56.65 46.20 45.12 43.41 41.65 39.64 37.66 34.95 35.70 37.16 35.24 36.79 38.45 39.38 39.01 36.07
54.64 54.43 54.63 54.50 54.67 55.43 55.51 55.38 55.51 55.26 55.29 56.16 57.55 58.07 58.09 58.15 58.20 57.94 57.46 56.92 56.27 55.81 55.67 55.83 56.29 54.30 43.30 42.99 51.30 49.15 49.26 46.58 45.48 43.87 41.99 41.32 40.03 40.18 37.42 36.38 35.12 37.32 37.63 37.85 36.58 37.26 36.78
55.71 54.97 54.67 54.83 54.55 54.49 53.94 53.96 54.10 54.22 54.48 54.64 54.80 54.98 56.23 57.63 57.79 57.67 57.49 56.67 55.95 55.57 55.67 55.81 55.96 49.78 43.09 48.32 47.56 47.90 48.06 45.92 44.63 44.28 42.19 43.07 42.59 39.90 39.05 36.91 39.24 38.12 34.97 37.03 37.00 36.21 36.54
54.31 53.47 53.84 53.63 53.76 54.15 53.69 53.09 52.91 53.42 53.56 53.59 53.72 53.49 53.84 54.19 55.20 56.49 56.61 56.03 55.65 55.69 55.73 55.73 55.35 46.60 41.90 52.38 47.49 49.36 47.63 48.19 48.55 47.81 44.89 44.16 43.78 40.86 39.07 39.48 38.03 34.57 33.37 30.12 35.57 35.54 36.96
52.81 53.57 53.34 52.75 52.57 52.23 52.29 52.24 52.45 52.00 52.11 52.83 53.20 53.22 53.08 53.47 53.45 54.00 55.49 55.59 55.47 55.63 55.49 55.32 45.43 42.56 43.58 54.97 50.35 51.40 49.44 48.06 48.22 45.22 44.42 46.00 42.24 37.85 37.88 33.66 30.89 31.28 27.86 29.29 33.44 35.86 34.53
52.49 52.63 52.65 52.71 52.81 52.32 52.48 52.19 51.71 51.62 52.06 52.43 52.97 53.22 53.33 53.37 53.02 53.44 54.56 55.17 55.34 53.02 51.29 51.91 45.66 42.78 48.35 50.22 49.42 49.70 47.93 49.10 46.25 43.69 41.67 39.93 36.47 33.69 32.98 31.27 26.38 28.65 29.22 30.92 29.92 32.65 32.84
52.74 52.93 52.71 52.63 52.69 51.93 51.39 51.86 52.08 52.00 52.04 52.16 52.20 52.64 52.71 53.02 53.16 53.80 52.24 49.60 45.91 43.56 42.50 45.15 43.44 46.39 48.66 48.68 51.91 48.04 46.87 44.24 42.55 40.57 35.67 36.52 32.50 30.00 32.42 33.60 34.06 32.48 30.50 29.70 31.51 35.14 31.49
53.01 53.08 53.01 52.88 53.16 51.99 51.74 51.71 52.58 51.81 52.02 51.93 51.64 52.10 52.19 52.89 53.43 53.35 52.64 45.38 45.19 43.07 40.61 46.71 46.68 44.92 47.57 48.08 44.69 50.04 46.78 41.09 39.39 35.63 35.82 33.27 30.43 35.17 35.48 34.22 33.26 32.28 29.71 29.81 33.66 34.95 33.69
52.79 52.85 52.85 52.98 53.01 52.93 51.99 52.26 52.56 51.85 51.98 51.71 51.25 51.41 51.86 52.49 52.55 51.75 49.50 46.53 45.51 45.91 40.40 42.99 46.82 46.53 47.88 48.45 45.51 46.94 47.68 40.45 37.36 34.31 34.02 31.28 34.75 37.82 35.50 33.36 32.60 31.06 30.08 29.84 30.98 31.94 30.43
52.92 52.64 52.90 52.81 53.04 53.20 53.05 53.01 52.91 52.39 51.96 51.63 51.40 51.27 51.88 51.87 47.58 47.96 44.94 47.53 47.97 49.73 31.35 34.11 41.00 44.10 47.52 47.70 43.13 50.81 50.46 45.19 37.48 34.75 35.10 33.19 37.21 36.15 34.24 33.42 33.82 28.68 34.59 34.44 31.52 28.54 25.35
52.48 52.27 52.48 52.31 52.46 52.21 52.06 52.64 52.70 52.50 52.08 51.60 51.35 51.01 51.71 51.02 44.56 44.17 46.19 46.27 48.37 43.68 12.65 35.08 40.82 48.23 46.81 43.86 43.08 45.11 50.30 44.01 42.77 35.35 36.52 34.19 33.45 32.65 31.90 33.75 35.26 32.07 36.20 33.42 31.05 26.74 23.73
52.06 52.00 51.65 51.79 51.73 51.69 52.15 52.09 51.75 51.94 51.60 51.65 51.30 51.14 51.43 48.14 45.20 46.16 45.48 48.14 46.39 29.34 13.14 31.69 42.37 41.33 41.42 42.94 43.97 43.98 45.56 45.79 44.26 39.35 35.81 37.27 37.45 36.07 35.61 36.29 36.33 35.86 32.33 31.27 28.30 26.64 21.51
51.19 51.23 51.12 51.14 51.21 51.17 51.12 51.23 51.24 51.35 51.26 51.35 51.07 51.04 50.15 47.02 40.53 45.63 46.69 46.46 32.10 20.43 32.73 30.12 34.01 40.08 40.04 39.03 40.74 41.76 39.46 38.16 35.70 31.26 33.10 35.23 35.24 36.30 37.89 33.23 33.81 33.59 30.11 23.47 22.24 21.02 21.61
50.48 50.43 50.18 50.52 50.56 50.46 50.43 50.37 50.51 50.48 50.73 50.80 50.50 50.10 48.41 47.15 45.67 45.56 45.75 36.67 24.39 28.23 29.65 35.83 35.24 34.62 32.37 38.56 39.36 40.05 36.97 34.53 39.11 34.69 31.34 30.45 28.28 34.35 37.36 37.07 32.99 31.59 31.08 23.19 19.71 19.32 22.15
50.04 49.81 49.77 49.85 49.93 50.19 50.00 49.85 49.73 49.73 49.55 50.08 49.24 44.73 42.74 45.15 45.71 44.85 40.08 28.31 24.10 28.33 34.41 33.36 33.44 29.46 29.58 34.20 36.26 36.84 36.85 34.91 37.81 36.97 31.24 28.94 29.47 36.93 37.65 38.64 37.65 30.79 27.36 33.87 27.15 26.26 22.14
49.07 49.01 49.23 49.28 49.12 49.20 49.07 49.24 49.22 49.02 49.10 48.84 41.21 40.83 41.81 44.77 46.28 43.95 34.74 29.02 29.79 33.54 34.56 35.26 28.58 31.49 26.16 28.64 31.10 33.41 33.53 38.33 38.48 40.36 39.58 35.43 29.49 35.35 35.42 37.08 35.80 33.92 34.84 26.60 26.78 22.10 20.53
48.17 47.72 48.19 48.40 48.39 48.25 48.64 48.64 48.60 48.51 48.48 47.15 38.88 35.10 37.78 44.90 43.90 37.20 27.01 27.67 30.95 35.26 35.16 32.03 30.42 31.06 32.01 31.74 32.45 31.75 32.71 37.80 38.25 39.96 40.05 36.95 32.15 31.63 34.08 30.68 29.98 30.18 28.89 30.79 31.33 28.13 24.21
43.95 47.42 46.80 46.98 47.63 47.90 47.98 48.18 48.29 48.60 48.11 43.44 35.97 30.15 38.03 44.19 32.41 32.32 28.89 28.94 35.16 32.13 35.07 33.53 32.79 32.98 31.66 32.82 31.34 32.06 31.54 34.58 38.12 38.09 35.52 37.71 34.07 26.88 31.65 35.05 35.75 33.47 31.53 32.27 26.70 25.21 26.25
45.43 44.96 45.44 45.68 46.38 47.86 47.57 47.39 47.76 47.79 46.80 40.83 33.42 30.68 41.30 39.57 26.27 27.75 30.06 30.51 31.62 30.54 30.72 31.11 30.70 32.94 34.85 32.05 28.21 32.52 34.15 39.11 38.80 36.87 33.02 34.03 31.98 28.09 29.69 33.20 35.60 31.00 32.24 33.21 32.89 30.45 26.66
45.29 45.46 45.17 45.52 46.19 46.76 46.45 47.05 47.31 47.27 46.34 40.67 33.45 26.64 29.16 37.16 32.78 28.13 27.51 27.51 27.95 33.70 32.17 33.09 31.76 32.79 30.29 28.95 32.57 30.31 31.98 37.70 38.75 37.65 41.68 38.43 30.26 27.20 24.36 26.70 30.83 30.29 32.64 32.85 31.65 26.00 27.66
44.32 44.48 44.39 45.19 45.52 45.51 44.31 43.35 45.82 46.56 45.90 39.94 33.65 26.57 28.68 25.07 28.42 29.67 28.94 28.26 26.99 26.77 32.54 33.16 30.14 30.36 28.84 26.38 27.11 27.30 30.03 31.99 34.53 39.21 37.69 35.01 29.45 30.62 31.39 31.76 31.71 30.74 30.82 32.76 29.12 30.01 25.56
43.93 44.29 44.46 44.67 44.75 45.06 45.18 44.55 44.90 45.03 45.75 37.24 29.52 29.85 29.07 28.18 28.48 26.79 30.66 27.22 26.41 28.38 29.47 28.48 28.57 30.35 30.45 27.54 28.74 27.34 30.80 30.51 30.14 33.97 32.03 34.20 25.24 30.00 28.46 33.16 33.36 31.21 31.97 31.34 31.30 32.35 32.70
43.70 43.89 43.81 43.92 43.97 44.12 44.48 44.39 44.20 45.30 44.63 35.57 35.18 32.79 32.70 29.13 25.77 23.77 25.13 26.48 29.02 30.09 31.18 32.67 31.23 30.02 28.48 31.07 32.29 33.44 34.46 34.45 35.10 32.48 31.05 33.42 31.16 27.45 26.03 31.34 30.96 26.61 30.03 30.62 29.01 33.77 32.50
43.31 43.41 43.41 43.28 43.46 43.66 43.70 44.22 44.48 44.54 44.33 38.60 36.84 33.45 29.34 23.10 26.19 26.02 26.30 27.63 27.47 28.59 29.60 31.69 33.28 30.28 33.58 37.06 36.41 35.48 34.06 35.04 34.23 33.93 34.46 29.36 29.35 30.48 27.17 29.25 21.30 30.15 34.53 35.64 33.80 34.90 35.98
42.79 42.93 42.79 42.98 43.11 43.06 43.51 43.61 43.78 43.75 44.22 39.04 38.49 34.91 30.10 24.14 26.66 26.50 27.03 27.75 28.29 28.27 28.23 31.55 33.10 34.79 37.87 34.12 29.84 25.79 21.09 25.26 29.48 32.61 32.42 34.48 29.08 22.42 24.68 25.20 28.18 30.25 31.65 31.40 30.41 30.13 35.62
42.63 42.80 42.08 42.64 42.98 43.28 43.29 43.33 43.41 43.66 43.66 40.73 38.44 38.06 33.71 26.97 24.98 29.41 27.20 27.68 22.78 20.80 23.24 28.75 35.23 37.78 35.74 30.91 26.57 21.69 19.60 23.51 23.82 28.61 32.47 33.21 33.11 28.12 25.67 22.64 19.68 27.35 31.81 34.34 35.12 23.21 33.38
41.93 42.17 42.36 42.40 42.96 43.02 43.09 43.12 42.99 42.62 43.11 40.32 38.64 38.91 34.59 28.11 27.73 28.43 25.04 24.72 26.94 25.70 21.98 26.72 29.62 31.86 34.21 28.64 25.41 23.42 21.84 26.81 21.53 24.28 25.52 26.88 28.61 25.69 25.83 23.92 26.00 31.46 33.01 35.05 24.89 24.02 33.24
41.37 41.57 41.88 41.84 42.47 42.88 43.13 43.26 43.13 43.12 42.92 40.73 37.05 40.62 35.10 29.61 28.38 30.57 31.33 27.80 27.38 27.61 23.07 26.78 28.48 29.24 27.75 25.39 25.94 25.01 23.00 25.59 25.32 27.34 26.49 25.42 23.86 24.47 26.90 23.97 20.57 33.15 33.26 28.47 31.41 32.29 32.98
41.25 41.58 41.64 41.93 42.32 42.04 42.03 42.43 42.63 42.61 42.90 42.48 35.33 39.94 40.44 33.00 30.68 34.79 35.00 35.81 34.02 32.66 29.96 29.81 28.34 29.69 30.14 27.50 24.36 24.55 24.67 23.53 26.21 21.65 28.46 23.56 26.87 25.22 26.99 25.86 32.34 34.25 33.09 33.80 35.21 31.89 31.56
MSLP
1019.16 1019.42 1019.34 1019.25 1019.16 1019.17 1019.12 1019.08 1018.88 1018.88 1019.02 1019.14 1019.13 1019.19 1019.01 1019.18 1019.12 1019.11 1019.28 1019.12 1019.05 1018.84 1018.60 1018.12 1018.00 1017.29 1016.21 1015.61 1013.87 1012.52 1012.56 1012.60 1012.46 1012.44 1012.74 1013.02 1013.25 1013.56 1013.76 1013.78 1013.63 1013.59 1013.34 1013.02 1012.70 1012.39 1012.40
1019.58 1019.39 1019.41 1019.51 1019.28 1019.51 1019.31 1019.13 1019.26 1019.01 1019.16 1019.10 1018.96 1018.82 1018.83 1018.97 1018.98 1019.09 1018.94 1019.01 1018.79 1018.75 1018.53 1018.21 1018.04 1017.57 1017.18 1015.88 1013.09 1012.70 1012.80 1012.64 1012.64 1012.61 1012.79 1012.89 1013.22 1013.49 1013.85 1013.86 1013.91 1014.00 1013.57 1013.17 1012.84 1012.72 1012.73
1019.37 1019.54 1019.48 1019.42 1019.71 1019.75 1019.53 1019.46 1019.40 1019.27 1019.36 1019.13 1019.20 1019.07 1018.77 1018.73 1018.70 1018.84 1018.86 1018.73 1018.88 1018.66 1018.37 1018.33 1018.05 1017.96 1017.54 1014.91 1013.09 1013.22 1013.08 1012.99 1012.59 1012.53 1012.91 1012.84 1012.88 1013.39 1013.87 1014.01 1013.91 1013.99 1014.12 1013.61 1012.88 1012.81 1013.06
1019.25 1019.28 1019.35 1019.36 1019.44 1019.84 1019.64 1019.55 1019.43 1019.50 1019.30 1019.31 1019.28 1019.27 1019.10 1018.77 1018.66 1018.64 1018.64 1018.44 1018.68 1018.33 1018.41 1018.34 1017.97 1018.02 1016.38 1013.37 1013.15 1012.98 1012.81 1012.75 1012.59 1012.64 1012.74 1012.60 1012.72 1013.34 1013.87 1014.11 1014.25 1014.61 1014.54 1014.27 1013.24 1012.98 1012.96
1019.13 1019.19 1019.11 1019.33 1019.49 1019.47 1019.60 1019.64 1019.55 1019.46 1019.50 1019.13 1019.24 1019.23 1018.94 1018.88 1018.66 1018.46 1018.53 1018.31 1018.22 1018.37 1018.06 1018.25 1017.98 1017.87 1015.22 1013.22 1013.01 1012.39 1012.37 1012.44 1012.24 1012.54 1012.52 1012.75 1013.03 1013.93 1014.33 1014.99 1015.41 1015.59 1015.30 1014.68 1014.07 1013.32 1013.64
1019.11 1019.02 1019.05 1019.21 1019.48 1019.38 1019.44 1019.71 1019.70 1019.72 1019.52 1019.46 1019.05 1019.21 1019.04 1018.84 1018.55 1018.55 1018.51 1018.30 1017.97 1018.02 1017.90 1017.95 1017.95 1017.75 1014.84 1013.26 1012.84 1012.25 1012.26 1012.35 1012.20 1012.55 1013.28 1013.55 1014.27 1014.71 1015.37 1015.71 1016.18 1015.87 1015.79 1015.18 1014.50 1014.00 1014.15
1018.63 1018.77 1018.84 1018.96 1019.11 1019.38 1019.38 1019.52 1019.58 1019.61 1019.58 1019.51 1019.51 1019.12 1018.95 1018.91 1018.72 1018.59 1018.72 1018.35 1018.63 1018.45 1017.90 1016.87 1016.11 1015.30 1013.88 1013.35 1012.71 1012.46 1012.15 1012.29 1012.51 1012.98 1013.81 1014.40 1015.16 1015.14 1015.07 1015.35 1015.67 1015.94 1015.99 1015.82 1014.97 1014.25 1014.51
1018.12 1018.53 1018.47 1018.63 1018.73 1018.97 1019.36 1019.24 1019.50 1019.48 1019.53 1019.34 1019.36 1019.35 1019.16 1019.09 1018.74 1018.70 1018.75 1018.56 1018.33 1018.70 1017.50 1016.01 1015.68 1014.85 1013.89 1013.61 1013.64 1012.47 1012.30 1012.82 1012.92 1013.46 1014.17 1015.02 1014.97 1014.52 1014.84 1015.12 1015.51 1015.73 1015.89 1015.93 1015.18 1014.42 1014.83
1017.59 1017.86 1018.09 1018.18 1018.26 1018.48 1018.81 1018.95 1019.07 1019.47 1019.40 1019.50 1019.33 1019.30 1018.97 1019.15 1018.91 1019.09 1018.83 1018.43 1018.30 1018.27 1017.86 1015.31 1014.35 1013.50 1012.89 1013.07 1012.45 1012.22 1012.51 1012.67 1013.13 1013.68 1014.07 1014.27 1014.04 1013.77 1014.73 1015.32 1015.57 1015.46 1015.60 1015.48 1015.55 1015.10 1015.18
1016.96 1017.32 1017.60 1017.80 1018.01 1018.15 1018.29 1018.60 1018.69 1018.92 1019.13 1019.33 1019.55 1019.39 1019.31 1019.04 1019.37 1019.21 1019.18 1018.55 1018.29 1018.15 1017.97 1014.96 1013.78 1012.26 1011.87 1012.23 1011.76 1011.04 1011.06 1012.08 1012.90 1013.11 1013.99 1013.77 1013.34 1013.82 1014.38 1014.77 1015.12 1015.38 1015.06 1015.23 1015.54 1015.90 1016.11
1016.38 1016.79 1016.98 1017.30 1017.55 1017.89 1018.06 1018.37 1018.60 1018.67 1018.99 1019.07 1019.26 1019.40 1019.32 1019.44 1019.27 1019.41 1019.22 1018.64 1018.57 1018.64 1017.49 1014.10 1012.95 1011.86 1011.61 1011.83 1011.32 1010.70 1010.49 1011.27 1011.67 1012.88 1013.51 1012.70 1012.86 1013.30 1013.92 1013.80 1014.35 1014.69 1014.77 1015.26 1015.65 1016.16 1016.53
1015.81 1016.19 1016.55 1016.79 1017.13 1017.48 1017.80 1018.01 1018.32 1018.41 1018.68 1018.84 1019.21 1019.19 1019.36 1019.47 1019.54 1019.15 1018.95 1018.68 1019.01 1019.36 1016.78 1013.59 1012.42 1012.24 1012.44 1011.95 1011.57 1010.80 1011.05 1011.16 1011.79 1012.68 1012.80 1012.59 1012.46 1012.70 1012.66 1013.04 1013.49 1014.04 1014.81 1015.58 1016.44 1016.91 1016.80
1015.22 1015.50 1015.89 1016.34 1016.61 1017.06 1017.31 1017.63 1018.06 1018.16 1018.34 1018.80 1018.80 1019.21 1019.34 1019.30 1019.46 1019.02 1019.08 1019.21 1019.68 1018.55 1015.63 1013.76 1012.81 1012.62 1012.59 1012.20 1011.85 1011.37 1011.30 1011.75 1011.99 1012.69 1012.62 1012.91 1012.27 1012.26 1012.18 1013.03 1013.65 1013.92 1014.82 1016.07 1016.82 1017.24 1016.10
1014.64 1015.04 1015.35 1015.68 1016.13 1016.63 1016.88 1017.26 1017.68 1017.84 1018.05 1018.53 1018.87 1019.12 1019.21 1019.24 1019.23 1019.19 1019.41 1019.75 1019.21 1016.89 1015.75 1014.60 1013.48 1013.02 1013.08 1012.62 1012.15 1011.87 1011.73 1011.86 1012.11 1012.37 1012.70 1012.67 1012.22 1011.89 1011.63 1011.77 1012.65 1013.50 1014.10 1014.83 1015.53 1016.30 1015.92
1013.96 1014.34 1014.67 1015.06 1015.52 1015.92 1016.38 1016.91 1017.40 1017.53 1017.90 1018.24 1018.71 1019.55 1019.66 1019.14 1019.42 1019.45 1019.54 1019.48 1018.22 1016.80 1015.92 1015.19 1014.38 1013.79 1013.56 1013.06 1012.74 1012.19 1012.13 1011.99 1011.83 1012.16 1012.69 1012.51 1011.96 1011.14 1011.07 1011.24 1012.08 1013.01 1013.46 1013.38 1014.61 1015.55 1015.94
1013.11 1013.50 1014.10 1014.49 1014.99 1015.43 1015.99 1016.35 1016.81 1017.24 1017.60 1018.13 1018.97 1019.71 1019.51 1018.96 1019.42 1019.49 1019.77 1018.98 1017.69 1016.66 1016.04 1015.78 1015.17 1014.57 1014.15 1013.75 1013.46 1013.00 1012.55 1012.00 1011.65 1011.38 1011.65 1012.12 1012.12 1011.51 1011.22 1011.32 1011.85 1012.05 1012.60 1013.66 1014.28 1014.99 1015.34
1013.06 1013.03 1013.46 1013.81 1014.56 1014.80 1015.49 1015.92 1016.34 1016.81 1017.39 1017.99 1019.15 1019.74 1018.86 1018.88 1019.42 1019.38 1019.21 1018.34 1017.36 1016.58 1016.50 1016.51 1015.86 1015.34 1015.06 1014.71 1014.08 1013.68 1013.03 1012.39 1012.18 1011.82 1011.81 1012.10 1012.77 1012.20 1011.94 1011.91 1012.04 1012.48 1012.46 1012.84 1013.14 1013.68 1013.86
1012.90 1012.58 1012.88 1013.29 1014.10 1014.44 1014.73 1015.47 1015.90 1016.44 1017.00 1017.97 1018.99 1019.33 1018.65 1018.59 1019.60 1019.10 1018.26 1017.70 1017.44 1016.91 1016.79 1016.72 1016.53 1016.15 1015.93 1015.62 1015.15 1014.63 1013.89 1013.49 1013.03 1013.05 1013.06 1012.87 1013.74 1013.36 1012.73 1012.14 1012.09 1012.15 1012.42 1012.45 1012.88 1013.83 1013.98
1011.90 1012.43 1012.50 1012.96 1013.34 1013.71 1014.28 1014.80 1015.44 1015.90 1016.54 1017.95 1018.64 1019.01 1018.49 1018.52 1018.44 1018.42 1018.31 1017.70 1017.64 1017.28 1016.86 1016.91 1016.60 1016.33 1016.16 1016.16 1016.02 1015.19 1014.47 1013.66 1013.60 1013.56 1013.92 1014.06 1014.70 1014.53 1013.64 1012.92 1012.37 1012.45 1012.45 1012.48 1012.45 1013.01 1013.31
1011.28 1011.67 1011.99 1012.14 1012.66 1013.09 1013.77 1014.37 1014.83 1015.40 1016.12 1017.51 1018.17 1018.45 1018.64 1018.30 1017.91 1018.12 1017.92 1017.71 1017.88 1017.07 1017.15 1017.01 1016.53 1016.48 1016.48 1016.62 1016.47 1015.69 1014.82 1014.23 1014.25 1014.35 1014.48 1014.59 1015.28 1015.29 1014.65 1013.73 1012.80 1012.39 1012.03 1012.03 1012.53 1013.25 1012.63
1010.79 1011.16 1011.51 1011.71 1012.13 1012.89 1013.16 1013.97 1014.43 1014.99 1015.67 1016.70 1017.29 1017.30 1017.17 1017.86 1017.77 1017.82 1017.88 1017.46 1017.55 1017.14 1016.58 1016.61 1016.37 1016.12 1016.57 1016.96 1016.61 1015.72 1015.26 1015.32 1014.94 1014.92 1014.93 1015.46 1015.61 1015.35 1014.74 1014.35 1013.41 1012.37 1011.84 1011.93 1012.29 1011.60 1012.08
1010.22 1010.73 1010.89 1010.98 1011.82 1012.43 1012.67 1013.29 1014.08 1014.47 1015.25 1016.18 1016.96 1017.18 1017.59 1017.56 1017.33 1017.74 1017.23 1017.16 1016.76 1016.13 1016.24 1015.97 1016.39 1015.74 1016.65 1016.76 1015.89 1015.87 1016.07 1015.81 1015.47 1015.51 1015.46 1015.68 1015.62 1015.38 1014.58 1013.59 1013.37 1013.10 1012.62 1012.11 1011.90 1011.77 1011.58
1009.68 1010.07 1010.38 1010.68 1011.32 1011.85 1012.18 1012.61 1013.78 1014.10 1014.66 1015.30 1016.37 1017.13 1017.18 1017.03 1017.19 1017.62 1016.61 1016.31 1016.40 1016.65 1016.02 1015.80 1016.07 1016.35 1016.38 1015.27 1016.02 1015.87 1015.66 1015.54 1015.66 1015.82 1016.02 1016.43 1016.10 1015.58 1014.28 1013.36 1013.35 1012.84 1011.43 1011.41 1011.55 1011.38 1010.93
1009.16 1009.59 1009.98 1010.40 1010.83 1011.27 1011.71 1012.16 1012.90 1013.44 1013.98 1015.03 1015.70 1016.33 1017.22 1016.61 1016.93 1016.46 1016.56 1016.63 1016.62 1016.58 1016.51 1016.19 1015.96 1016.26 1015.51 1015.72 1015.63 1015.78 1015.63 1015.34 1015.40 1015.07 1015.26 1015.89 1016.13 1015.86 1014.80 1014.01 1012.77 1010.78 1010.03 1009.87 1010.50 1010.34 1010.83
1008.65 1009.06 1009.55 1009.89 1010.26 1010.66 1011.08 1011.68 1012.39 1012.98 1013.46 1014.48 1015.26 1015.83 1016.12 1016.01 1016.36 1016.36 1016.39 1016.65 1016.89 1016.43 1016.44 1016.42 1016.42 1016.64 1016.57 1016.23 1016.44 1016.30 1015.83 1015.75 1014.73 1014.40 1014.74 1014.97 1015.42 1015.47 1015.12 1013.77 1012.68 1011.72 1010.29 1010.26 1010.36 1009.95 1010.15
1008.22 1008.49 1008.77 1009.23 1009.65 1010.09 1010.61 1011.18 1011.74 1012.27 1012.84 1013.58 1014.15 1015.05 1015.81 1015.80 1015.12 1015.75 1015.91 1016.13 1016.40 1016.59 1016.66 1016.07 1015.98 1015.95 1016.86 1016.41 1016.25 1016.14 1015.80 1015.19 1014.48 1013.83 1013.59 1014.06 1014.32 1015.02 1014.71 1013.92 1012.60 1011.25 1010.08 1009.86 1010.24 1010.47 1010.31
1007.65 1007.94 1008.29 1008.66 1009.09 1009.54 1009.98 1010.43 1010.91 1011.42 1011.95 1012.68 1013.23 1014.19 1015.08 1014.98 1014.61 1014.81 1014.92 1015.40 1015.96 1016.11 1016.10 1015.82 1015.72 1015.87 1016.09 1016.40 1015.72 1015.65 1015.14 1014.26 1014.27 1013.89 1014.08 1014.22 1014.35 1014.05 1013.87 1013.40 1012.05 1010.65 1010.14 1010.22 1010.93 1011.42 1011.03
1007.20 1007.45 1007.68 1007.97 1008.22 1008.51 1008.83 1009.20 1009.69 1010.33 1011.04 1011.82 1012.38 1013.41 1013.87 1014.02 1014.09 1013.80 1014.02 1014.25 1014.47 1014.99 1015.48 1015.39 1015.74 1015.74 1015.97 1016.04 1015.14 1014.47 1014.42 1013.89 1013.60 1013.34 1013.33 1013.38 1013.59 1013.52 1013.56 1013.14 1011.90 1010.41 1010.48 1010.80 1010.88 1011.77 1012.28
1006.43 1006.57 1006.67 1006.80 1006.98 1007.23 1007.53 1007.93 1008.44 1009.07 1009.94 1010.95 1011.61 1012.23 1013.23 1013.60 1013.04 1012.84 1012.53 1012.78 1013.03 1013.36 1014.21 1014.44 1014.03 1014.04 1014.59 1014.28 1013.84 1013.58 1014.20 1013.98 1013.56 1013.28 1012.78 1012.86 1012.10 1012.39 1012.48 1011.82 1011.14 1010.85 1010.91 1010.82 1011.18 1012.10 1013.51
Wind_Speed
0 2 2 1 1 1 2 6 7 3 5 8 8 8 6 7 7 7 8 8 9 10 12 15 18 21 9 5 8 2 2 2 2 2 4 4 5 3 2 3 5 2 3 4 5 4 2
4 2 2 2 2 1 3 5 4 6 5 5 3 6 7 7 7 8 7 8 8 8 10 13 15 17 3 6 3 6 2 1 1 2 1 2 2 0 1 2 1 4 4 6 3 3 2
8 6 5 4 3 2 2 3 4 4 4 6 6 6 5 6 7 8 8 7 9 8 9 11 11 4 3 16 2 6 5 3 2 3 1 2 3 4 1 4 2 3 4 7 4 3 5
5 5 5 5 4 5 2 3 3 3 4 5 6 6 8 5 6 8 9 6 9 6 11 9 8 1 8 5 1 7 3 6 5 4 4 3 4 4 2 1 6 3 4 2 4 1 4
7 8 6 5 4 3 4 5 4 3 5 5 6 7 6 7 8 8 9 7 8 7 10 8 2 1 10 8 4 6 7 5 4 3 1 3 5 3 4 4 5 5 4 3 5 4 3
11 9 8 8 6 5 4 4 3 4 4 6 5 7 7 7 7 7 7 6 6 5 2 2 2 2 6 3 4 4 1 3 2 5 3 4 5 3 3 4 5 4 4 4 4 1 2
13 13 12 11 10 8 7 6 5 4 4 4 7 7 7 7 7 5 3 4 4 3 1 9 6 5 4 7 3 1 2 3 3 5 5 1 2 6 9 8 3 1 2 4 4 6 1
14 14 14 14 13 12 10 8 6 5 5 3 5 7 8 6 5 2 2 2 2 1 8 10 13 9 10 3 4 10 2 3 4 7 4 3 8 7 6 5 6 5 2 7 8 6 7
15 15 14 14 13 14 13 11 9 7 5 4 3 6 8 1 1 1 2 4 2 1 5 7 9 9 9 11 12 13 7 3 6 6 8 9 6 5 7 4 4 5 6 5 7 5 2
18 15 14 13 13 13 13 12 10 9 7 4 4 5 6 3 1 1 4 6 3 2 4 7 5 8 5 5 8 14 13 10 5 10 6 8 7 9 4 5 7 3 8 8 5 2 5
13 14 14 14 12 10 9 8 9 9 8 5 3 4 1 3 1 1 4 3 1 4 5 2 3 2 4 9 2 4 3 2 18 7 7 8 6 5 6 10 8 7 7 7 5 4 1
15 14 14 14 14 12 11 10 9 9 8 7 5 3 4 0 0 4 3 2 3 5 10 5 3 4 3 3 4 2 3 4 2 7 5 8 4 7 9 2 8 5 6 6 5 3 6
16 15 15 15 16 15 14 12 10 9 9 9 7 5 5 1 2 3 0 1 2 5 4 3 2 2 4 4 4 3 5 6 7 5 11 5 12 3 4 3 3 5 6 1 2 2 9
17 16 16 14 14 16 15 13 11 10 10 8 7 6 3 3 1 1 2 3 5 6 7 4 3 3 2 1 4 4 3 3 7 3 2 8 7 12 7 18 9 8 9 7 7 6 5
19 16 15 15 15 16 15 14 13 12 10 10 5 2 0 3 2 1 2 9 8 6 3 4 3 1 2 4 3 2 6 5 6 10 7 5 6 4 5 6 13 6 9 8 3 3 2
19 17 17 15 13 12 16 16 15 12 10 9 4 2 2 2 5 3 1 10 7 4 2 4 4 4 4 4 4 1 2 2 4 10 11 4 7 4 0 4 2 9 8 3 1 8 13
19 16 16 15 14 14 15 15 15 14 12 12 4 2 4 7 4 3 9 9 8 7 5 1 3 3 1 4 2 3 4 3 6 6 6 3 3 6 3 4 7 2 4 4 3 5 10
20 23 15 12 15 17 19 16 16 14 13 8 4 4 2 6 6 2 9 9 3 7 1 6 3 1 2 4 4 3 2 2 4 4 6 4 3 4 12 2 2 2 5 6 6 7 4
21 23 18 18 16 18 18 18 17 16 16 5 3 3 1 3 10 9 9 13 5 3 5 4 6 7 4 4 4 6 7 4 3 2 2 2 2 3 4 3 2 4 6 4 4 3 8
19 19 19 16 15 16 13 20 18 16 19 7 3 5 2 5 4 14 18 18 14 4 14 8 5 5 5 8 5 6 4 3 4 1 4 4 3 4 7 4 2 5 16 6 6 4 13
18 19 21 18 17 17 18 16 18 18 20 8 4 4 5 7 10 16 9 8 18 12 11 9 8 15 7 2 5 16 13 14 13 7 1 5 7 5 12 9 9 6 8 15 13 13 9
18 20 19 16 17 18 20 19 21 21 18 3 3 4 1 3 2 14 9 15 21 18 10 8 14 15 9 14 21 3 3 3 7 2 2 3 5 5 9 19 11 6 9 7 10 11 11
18 18 17 15 16 17 16 17 23 22 20 3 3 1 1 5 5 5 13 18 6 17 14 16 12 11 8 18 4 12 13 10 9 5 4 1 2 2 10 9 6 7 19 13 6 6 9
18 18 19 18 18 17 17 16 17 20 22 3 2 4 4 7 9 13 2 7 15 18 14 10 11 9 9 7 4 3 2 6 6 10 8 7 4 3 5 1 9 6 2 12 16 20 14
15 16 16 17 18 17 17 17 18 20 22 4 4 3 5 7 9 10 10 13 13 10 11 7 6 5 10 4 6 5 4 3 13 12 9 10 5 3 5 5 5 9 5 7 10 14 15
16 18 17 18 18 17 18 19 20 21 23 10 7 7 3 5 12 6 13 8 5 3 2 5 2 6 2 3 4 7 6 5 4 3 4 7 8 7 3 5 7 5 4 1 4 8 6
14 16 18 20 20 20 21 22 23 24 25 14 5 12 7 6 5 10 10 10 5 5 3 2 3 3 8 6 7 8 6 6 6 4 4 4 4 13 9 5 7 7 6 2 5 8 2
17 19 20 22 23 24 24 25 25 25 26 18 9 11 11 5 8 9 12 10 5 10 9 4 2 2 0 7 5 2 2 6 4 5 6 8 7 5 6 5 9 5 1 6 4 3 7
19 20 21 22 23 25 26 27 29 29 29 26 10 11 11 6 3 10 17 20 14 9 8 4 4 4 6 6 1 2 3 1 2 4 2 5 8 6 8 6 2 3 3 3 4 8 6
Wind_Direction
307 348 343 325 43 48 75 69 65 29 263 255 255 260 267 278 289 296 306 314 320 331 336 340 339 334 353 354 259 345 163 68 16 49 64 30 45 16 10 320 341 157 314 313 307 246 266
234 253 311 344 33 38 87 79 59 64 44 29 329 261 264 277 287 294 297 308 317 325 329 338 341 332 5 285 312 4 303 139 142 64 49 106 124 66 328 333 33 320 306 290 315 283 262
258 248 255 262 286 295 80 59 47 40 30 40 11 1 353 293 277 283 296 309 312 321 319 326 343 350 274 245 27 316 319 292 162 113 347 200 146 88 156 330 333 309 319 318 249 214 240
244 232 258 260 257 253 206 338 341 2 19 7 358 342 339 327 322 298 290 300 301 318 305 310 338 329 246 264 203 289 171 276 235 241 196 208 153 119 168 235 11 336 70 347 294 167 274
260 258 227 238 275 295 318 305 305 343 346 344 326 324 315 315 329 319 295 295 290 295 289 296 47 83 266 310 295 274 171 218 161 158 184 92 75 105 45 83 8 359 250 230 305 220 24
238 248 241 234 235 237 249 250 283 312 336 331 344 330 325 325 326 317 289 278 281 315 276 179 278 23 269 266 310 315 176 228 133 103 41 51 53 101 66 94 232 228 238 254 235 271 128
238 240 239 238 230 238 239 252 259 280 298 331 342 350 353 326 331 312 319 324 340 289 248 203 196 232 287 302 290 296 26 119 96 80 161 342 114 206 199 186 156 53 305 298 289 271 293
233 240 240 243 233 232 239 239 241 249 263 288 340 337 336 327 351 277 267 221 268 135 298 240 254 257 265 131 312 280 128 188 160 192 130 41 241 216 217 172 180 192 229 277 285 285 173
233 233 241 239 245 229 227 229 219 231 243 268 318 325 323 357 110 182 270 240 73 313 271 272 215 226 224 176 215 242 165 167 199 166 193 179 210 112 145 173 200 196 186 212 221 324 272
233 226 231 235 236 230 229 232 225 210 221 245 293 320 321 141 86 313 268 347 56 41 313 274 246 265 184 158 275 203 195 165 224 200 185 234 215 215 225 198 177 224 210 219 220 160 235
219 219 217 219 220 221 223 231 236 217 207 222 247 297 238 11 204 194 298 333 9 46 360 246 216 282 188 174 294 251 139 107 222 184 155 236 176 182 222 226 148 222 184 207 180 170 13
214 216 225 221 220 218 218 219 218 214 206 211 221 245 200 87 7 265 322 165 48 48 253 319 157 187 134 252 297 39 124 115 182 210 278 242 200 153 195 174 175 136 91 59 53 90 263
223 217 219 226 225 218 219 214 212 208 204 213 203 231 183 135 237 313 117 144 115 171 298 258 181 145 231 202 220 226 150 169 180 158 232 253 240 217 148 135 55 143 124 225 257 190 240
228 225 225 228 229 225 219 214 211 203 199 202 207 205 249 224 18 148 43 82 182 227 231 333 45 36 28 359 255 219 154 184 220 130 147 195 279 183 185 209 181 193 171 172 197 195 245
219 221 222 218 220 218 214 211 209 202 203 199 174 39 75 256 140 74 118 196 213 189 245 314 21 19 285 297 206 309 209 197 208 175 190 194 256 268 193 202 171 190 207 187 115 53 43
225 220 217 210 210 213 222 217 211 207 200 190 113 159 212 199 140 102 189 214 235 208 58 27 197 204 226 232 224 203 243 266 236 196 185 232 282 208 27 110 58 186 163 101 121 224 244
241 226 211 207 215 206 218 211 208 201 205 142 99 174 249 148 100 151 215 222 244 229 41 342 232 317 354 350 325 264 256 323 5 330 192 205 176 248 125 188 197 158 194 209 182 173 232
288 215 215 223 225 219 209 214 211 201 184 116 132 210 255 146 182 191 212 189 264 259 72 234 16 262 272 341 316 290 264 304 5 14 328 201 66 303 260 306 175 210 271 189 205 225 254
225 245 229 236 233 221 217 208 210 197 166 130 186 181 177 168 205 210 231 236 235 262 200 223 223 190 190 221 243 218 246 264 290 84 168 341 154 277 278 295 203 198 209 210 133 96 200
231 232 236 230 230 197 216 211 202 195 165 142 172 159 245 223 228 205 219 231 232 232 238 258 251 214 211 239 240 272 257 274 34 166 172 128 189 224 257 312 284 204 233 173 150 167 238
229 222 225 226 218 217 200 238 215 203 180 145 186 218 176 178 230 219 214 221 224 236 211 196 238 236 209 213 210 244 267 279 286 295 251 173 230 223 279 289 291 236 205 225 208 224 197
234 233 226 216 220 224 208 201 229 212 191 165 167 172 139 146 305 213 211 219 225 231 218 217 239 248 216 230 232 31 15 215 254 33 83 352 255 184 259 253 236 283 309 258 222 235 246
229 223 220 216 214 216 214 204 215 214 191 142 163 107 109 180 175 169 227 233 237 246 252 240 240 249 227 233 248 233 242 242 239 209 193 210 249 201 269 260 231 222 231 214 217 216 204
216 217 213 209 210 213 215 214 219 215 201 139 163 119 202 232 204 216 152 204 237 247 254 269 218 225 251 292 337 326 240 245 227 242 179 174 195 230 284 342 237 246 284 230 222 239 228
223 218 223 217 212 213 215 220 222 220 217 180 151 189 187 231 226 233 218 233 261 267 263 259 254 289 299 280 281 298 306 324 237 222 197 204 158 220 250 230 316 302 210 176 178 246 237
230 217 220 235 232 230 228 227 226 223 221 217 195 172 176 201 213 207 219 208 205 192 293 239 168 164 3 241 176 245 243 208 255 270 222 189 202 191 157 262 219 243 265 304 122 280 227
228 228 231 235 237 237 237 232 225 224 223 216 203 188 198 235 189 177 201 211 176 184 216 288 162 200 157 229 208 213 215 185 222 224 187 154 175 219 223 228 269 247 254 266 149 246 112
247 247 246 245 245 241 237 234 226 220 219 216 218 192 203 219 223 210 206 199 171 201 216 226 138 194 221 253 193 203 191 214 189 193 183 178 168 190 196 211 263 188 255 186 192 18 108
256 256 250 247 247 246 244 239 234 233 227 214 220 191 193 216 239 216 220 220 209 178 192 232 222 172 175 263 186 128 169 154 130 240 158 216 187 183 190 212 335 337 303 40 121 119 114